Regional Weather Roundup
Issued by NWS

Home | Current Version | Previous Version | Graphics & Text | Print | Product List | Glossary Off
Versions: 1 2 3 4 5 6 7 8 9 10 11 12 13 14 15 16 17 18 19 20 21 22 23 24 25 26 27 28 29 30 31 32 33 34 35 36 37 38 39 40 41 42 43 44 45 46 47 48 49 50

000
ASUS43 KMKX 041300
RWRWI

WISCONSIN REGIONAL WEATHER ROUNDUP
NATIONAL WEATHER SERVICE MILWAUKEE/SULLIVAN WI
800 AM CDT TUE AUG 04 2015

NOTE: "FAIR" INDICATES FEW OR NO CLOUDS BELOW 12,000 FEET WITH NO
SIGNIFICANT WEATHER AND/OR OBSTRUCTIONS TO VISIBILITY.

WIZ001-002-006>008-014>016-023>028-041400-
NORTHWEST WISCONSIN

CITY           SKY/WX    TMP DP  RH WIND       PRES   REMARKS
SUPERIOR ARPT  SUNNY     58  53  84 CALM      29.94S
ASHLAND        SUNNY     60  55  83 VRB3      29.93S
HAYWARD        SUNNY     57  52  83 S3        29.96R
SIREN          SUNNY     57  54  88 NW5       29.98R
CUMBERLAND     SUNNY     55  54  94 CALM      29.98R
RICE LAKE      SUNNY     56  54  93 CALM      29.99R
CHETEK         SUNNY     57  53  87 CALM      29.97R
LADYSMITH      SUNNY     57  55  91 CALM      29.97S
EAU CLAIRE     NOT AVBL
MENOMONIE      SUNNY     60  56  87 SW5       29.99R
NEW RICHMOND   SUNNY     58  58  99 SW5       30.00R
OSCEOLA        SUNNY     57  57 100 W3        30.01R
$$

WIZ003>005-009-010-017-018-041400-
NORTH CENTRAL WISCONSIN

CITY           SKY/WX    TMP DP  RH WIND       PRES   REMARKS
MANITOWISH WTR SUNNY     57  55  91 NW8       29.93R
ARBOR VITAE    SUNNY     59  54  81 NW8       29.93R
WOODRUFF       SUNNY     59  54  81 NW8       29.93R
RHINELANDER    SUNNY     60  53  77 W8        29.93S
EAGLE RIVER    SUNNY     57  55  91 NW7       29.92R
LAND O LAKES   CLOUDY    57  54  89 NW7       29.93R
PHILLIPS       SUNNY     57  54  88 NW5       29.94S
TOMAHAWK       SUNNY     56  52  85 W6        29.94S
MEDFORD        SUNNY     56  53  89 W5        29.95S
MERRILL        NOT AVBL
$$

WIZ029-030-035-036-043>047-041400-
CENTRAL WISCONSIN

CITY           SKY/WX    TMP DP  RH WIND       PRES   REMARKS
WAUSAU         SUNNY     62  53  72 NW10      29.93R
MOSINEE        SUNNY     61  55  82 NW12      29.96R
MARSHFIELD     SUNNY     63  52  67 NW6       29.96R
STEVENS POINT  SUNNY     60  54  80 NW3       29.95R
WAUPACA        SUNNY     65  57  76 W6        29.93S
WAUTOMA        NOT AVBL
WISC RAPIDS    SUNNY     63  54  72 W5        29.98R
CAMP DOUGLAS   NOT AVBL
$$

WIZ011>013-019>022-031-037>040-048>050-041400-
NORTHEAST WISCONSIN

CITY           SKY/WX    TMP DP  RH WIND       PRES   REMARKS
ANTIGO         SUNNY     58  54  86 NW9       29.94R
SHAWANO        SUNNY     61  56  84 W5        29.91S
OCONTO         MOSUNNY   61  60  96 W3        29.89S
STURGEON BAY   CLOUDY    61  55  82 N6        29.93R
GREEN BAY      SUNNY     65  58  78 NW7       29.92R
MANITOWOC      NOT AVBL
APPLETON       MOSUNNY   61  54  77 W7        29.93R
CLINTONVILLE   SUNNY     63  54  72 NW8       29.92R
OSHKOSH        SUNNY     64  55  72 W9        29.94R
$$

WIZ032>034-041-042-053>061-041400-
SOUTHWEST WISCONSIN

CITY           SKY/WX    TMP DP  RH WIND       PRES   REMARKS
LA CROSSE      SUNNY     63  56  78 S5        29.99R
SPARTA         SUNNY     55  51  86 CALM      30.00R
VIROQUA        SUNNY     58  57  97 CALM      30.00R
BOSCOBEL       SUNNY     62  56  80 S3        30.00R
PRAIRIE DU CHI SUNNY     60  53  76 CALM      30.00R
PLATTEVILLE    SUNNY     61  58  90 W5        29.99S
$$

WIZ056-057-062-063-064-067-068-041400-
SOUTH CENTRAL WISCONSIN

CITY           SKY/WX    TMP DP  RH WIND       PRES   REMARKS
REEDSBURG      SUNNY     59  54  83 W5        29.98R
BARABOO/DELLS  SUNNY     62  53  71 W5        29.98R
LONE ROCK      MOSUNNY   58  55  90 W7        30.00R
MINERAL POINT  SUNNY     61  55  82 NW3       29.99S
MADISON        MOSUNNY   65  55  70 W5        29.97R
MIDDLETON      MOSUNNY   63  56  77 W6        29.98R
WATERTOWN      SUNNY     60  58  93 CALM      29.94S
MONROE         SUNNY     63  54  72 W9        29.98R
JANESVILLE     SUNNY     64  55  72 CALM      29.96R
$$

WIZ051-052-058>065-066-070>072-041400-
SOUTHEAST WISCONSIN

CITY           SKY/WX    TMP DP  RH WIND       PRES   REMARKS
MILWAUKEE      MOSUNNY   69  53  56 W7        29.94R
WAUKESHA       SUNNY     64  54  68 W5        29.96R
MILWAUKEE/TIMM SUNNY     66  54  63 W5        29.95R
RACINE         SUNNY     68  54  60 W6        29.96R
BURLINGTON     SUNNY     61  56  84 S3        29.95R
KENOSHA        SUNNY     66  58  75 W6        29.96R
FOND DU LAC    SUNNY     64  56  75 W7        29.94R
SHEBOYGAN      PTSUNNY   62  56  80 W6        29.92R
WEST BEND      SUNNY     63  54  72 W5        29.94R
JUNEAU         SUNNY     58  55  88 SW5       29.96R
$$

LSZ147-162-041400-
LAKE SUPERIOR

STATION/POSITION TIME  TEMP    WIND        PRES    WAVE
                       AIR SEA DIR/SP/G            HT/PER
                 (UTC) (F)     (DEG/KT/KT) (MB)    (FT/S)
W MID LAKE BUOY  1150   56 56  300/  4/  4 1012.2R   1/ 3
DEVILS ISLAND    1200   58     300/ 11/ 12 1013.2R
PORT WING        1240   58     210/  4/  6 1013.9R
SAXON HARBOR     1240   62        CALM     1012.9R
$$

LMZ867-665-643>646-041400-
LAKE MICHIGAN

STATION/POSITION TIME  TEMP    WIND        PRES    WAVE
                       AIR SEA DIR/SP/G            HT/PER
                 (UTC) (F)     (DEG/KT/KT) (MB)    (FT/S)
CHAMBERS ISLAND  1200   61     290/  6/  9 1012.2R
S GREEN BAY BUOY 1100   63 71  270/ 10/ 12 1013.3R
N MID LAKE BUOY  1150   62 67  310/ 12/ 14 1011.0R   2/ 4
NORTHPORT PIER   1200   63     300/  7/ 10 1011.9R
SISTER BAY       1218   63     340/ 10/ 11   N/A
ALGOMA LAKESHORE 1212           CALM  /  3   N/A
KEWAUNEE LAKESHO 1200   60     310/  4/  4 1011.8R
SHEBOYGAN LAKESH 1200   63     260/  9/ 10 1012.8R
PORT WASHINGTON  1200   66     280/  6/  9 1013.9R
ATWATER BUOY     1200   62 52  250/  8/  8 1014.6R
MILWAUKEE LAKESH 1200   67     280/  6/  7   N/A
KENOSHA   LAKESH 1200   66     260/  6/  9 1013.5R
$$

TC  - TEMPERATURE IN CELSIUS
VSB - VISIBILITY IN STATUTE MILES
WCI - WIND CHILL INDEX
HX  - HEAT INDEX



USA.gov is the U.S. government's official web portal to all federal, state and local government web resources and services.